Showing default

CAPELLA-14 (ACADIA), 59444

Orbit data source: Space-Track

CAPELLA-14 (ACADIA), 59444 is a payload satellite owned by Capella Space (US) in LEO that was launched on Sun, 07 Apr 2024 UTC via an FALCON 9 launch vehicle from the Air Force Eastern Test Range (AFETR). Payload-class satellites include a variety of spacecraft equipped with specific instruments for various scientific and technological missions. These include communications satellites like Starlink; space stations such as the ISS; scientific satellites like the Hubble; Earth observation satellites from companies like Planet Labs, Umbra, and HawkEye 360; GPS; miniature CubeSats for education and research; and military/defense satellites.

Loading next visibility...
Identifier
59444, 2024-066C
Orbit
LEO
Country
Flag of USUS
Related business
Manufacturer
Capella Space
Mission
Operational spacecraft
Bus & Motor
ACADIA, Unknown motor
Mass
180 kg wet, ~150 kg dry
Launch date (UTC)
2024-04-07 (1 year ago)
Launch vehicle
FALCON 9
Launch site
Air Force Eastern Test Range (AFETR)
Object type
Payload
Rocket body
Debris
Shape & HBR
Unknown
Radar Cross Section
Large (>1 m²)

Expand to show TLE details & history
Last TLE update: 20 hours ago

TLE from 20 hours ago
0 CAPELLA-14 (ACADIA)
1 59444U 24066C   25247.47918733  .00016659  00000-0  12571-2 0  9991
2 59444  45.6080 313.4297 0006694 260.3625  99.6501 15.02297626 69341
Epoch: 2025-09-04T11:30Z
TLE epoch observation values (Epoch: 2025-09-04T11:30:01.785Z)
Latitude
-0.00004°
Longitude
157.0811°
Altitude
560.661 km
Speed
7.582 km/s
True Right ascension
20h 53m 43s
True Declination
0° 00' 00"
Sunlit
Object was in full shadow at epoch
Visualization orbit readout
Latitude
Unknown
Longitude
Unknown
Altitude
Unknown
Speed
Unknown
Apparent Right ascension
Unknown
Apparent Declination
Unknown
Sunlit
N/A
Visualization observer readout
Local Sidereal Time
23:41:26
Azimuth
Unknown
Elevation
Unknown
Doppler factor
Unknown
Orbital elements
Apogee altitude
565.949 km
Perigee altitude
556.659 km
Semi-major axis
6,939.441 km
Eccentricity
0.00067
Inclination
45.608°
RAAN
313.4297°
Arg. of periapsis
260.3625°
True anomaly
99.72571°
Mean anomaly
99.6501°
Eccentric anomaly
99.68791°
Mean motion
3.75454 °/min
Orbital period
95.88 mins
BSTAR
0.0012571
Loading maneuver chart data...
Computing Atmospheric mass density...
Loading historical data...
Loading historical data...
Loading historical data...
Loading historical data...
Loading historical data...
Loading historical data...
Loading historical data...

Documentation

Showing up to 5 results
|